LA7IN Weather Reports


time (UTC)temp
C
wind
direction
speed
KPH
gust
KPH
rain 1hr
cm
rain 24hr
cm
rain mn
cm
humidity
%
barometer
mb
20260507130040 12 297 8.0 17.7 0.00 0.00 0.00 41 1018.4
20260507124535 12 322 3.2 16.1 0.00 0.00 0.00 41 1018.4
20260507123031 12 320 8.0 19.3 0.00 0.00 0.00 43 1018.3
20260507121529 12 359 4.8 12.9 0.00 0.00 0.00 45 1018.3
20260507120027 12 325 3.2 14.5 0.00 0.00 0.00 44 1018.3
20260507114529 11 290 4.8 12.9 0.00 0.00 0.00 47 1018.4
20260507113025 11 336 4.8 12.9 0.00 0.00 0.00 47 1018.4
20260507111522 11 295 3.2 9.7 0.00 0.00 0.00 48 1018.4
20260507110022 11 11 3.2 12.9 0.00 0.00 0.00 50 1018.4
20260507104519 11 41 3.2 8.0 0.00 0.00 0.00 48 1018.4
20260507103016 10 333 1.6 9.7 0.00 0.00 0.00 53 1018.5
20260507101516 10 337 1.6 9.7 0.00 0.00 0.00 51 1018.5
20260507100010 9 301 1.6 12.9 0.00 0.00 0.00 55 1018.5
20260507094509 8 320 3.2 9.7 0.00 0.00 0.00 56 1018.4
20260507093005 8 341 4.8 14.5 0.00 0.00 0.00 59 1018.4
20260507091506 8 295 6.4 14.5 0.00 0.00 0.00 61 1018.4
20260507090004 8 343 6.4 14.5 0.00 0.00 0.00 61 1018.4
20260507084503 8 354 3.2 12.9 0.00 0.00 0.00 62 1018.4
20260507083000 7 324 3.2 9.7 0.00 0.00 0.00 61 1018.4
20260507081603 7 333 3.2 14.5 0.00 0.00 0.00 62 1018.3
20260507080119 7 310 3.2 12.9 0.00 0.00 0.00 62 1018.2
20260507074600 7 95 1.6 6.4 0.00 0.00 0.00 64 1018.2
20260507073056 7 65 1.6 6.4 0.00 0.00 0.00 64 1018.3
20260507071552 7 324 0.0 6.4 0.00 0.00 0.00 70 1018.2
20260507070054 6 255 1.6 4.8 0.00 0.00 0.00 75 1018.1
20260507064617 6 278 1.6 4.8 0.00 0.00 0.00 75 1018.1
20260507063042 5 33 0.0 4.8 0.00 0.00 0.00 77 1018.0
20260507061540 5 312 1.6 4.8 0.00 0.00 0.00 79 1017.9
20260507060049 4 292 0.0 3.2 0.00 0.00 0.00 80 1017.9
20260507054543 4 299 0.0 3.2 0.00 0.00 0.00 81 1017.9
20260507053039 4 299 0.0 4.8 0.00 0.00 0.00 83 1017.9
20260507051542 3 295 0.0 4.8 0.00 0.00 0.00 85 1017.7
20260507050044 3 343 0.0 3.2 0.00 0.00 0.00 86 1017.7
20260507044535 3 341 0.0 3.2 0.00 0.00 0.00 86 1017.6
20260507043034 3 344 0.0 1.6 0.00 0.00 0.00 85 1017.7
20260507041533 3 344 0.0 4.8 0.00 0.00 0.00 85 1017.4
20260507040031 3 347 0.0 4.8 0.00 0.00 0.00 85 1017.5
20260507034530 3 9 0.0 3.2 0.00 0.00 0.00 85 1017.3
20260507033029 3 9 0.0 3.2 0.00 0.00 0.00 85 1017.4
20260507031528 3 359 1.6 6.4 0.00 0.00 0.00 85 1017.4
20260507030029 3 345 0.0 3.2 0.00 0.00 0.00 84 1017.3
20260507024527 3 345 1.6 3.2 0.00 0.00 0.00 84 1017.3
20260507023023 2 359 0.0 4.8 0.00 0.00 0.00 84 1017.1
20260507021521 2 359 0.0 3.2 0.00 0.00 0.00 83 1017.1
20260507020022 3 4 0.0 3.2 0.00 0.00 0.00 83 1017.0
20260507014519 3 4 0.0 3.2 0.00 0.00 0.00 82 1017.0
20260507013016 3 4 0.0 3.2 0.00 0.00 0.00 81 1016.9
20260507011516 3 4 0.0 4.8 0.00 0.00 0.00 81 1016.9
20260507010017 3 10 0.0 1.6 0.00 0.00 0.00 80 1016.9
20260507004512 3 10 0.0 4.8 0.00 0.00 0.00 80 1017.0
20260507003009 4 326 0.0 6.4 0.00 0.00 0.00 80 1016.9
20260507001513 4 328 1.6 8.0 0.00 0.00 0.00 80 1016.9
20260507000008 4 354 1.6 6.4 0.00 0.00 0.00 80 1016.8
20260506234509 4 347 3.2 6.4 0.00 0.00 0.00 80 1016.8
20260506233011 4 332 1.6 6.4 0.00 0.00 0.00 79 1016.8
20260506231506 4 339 3.2 8.0 0.00 0.00 0.00 79 1016.8
20260506230012 5 338 4.8 8.0 0.00 0.00 0.00 79 1016.7
20260506224500 5 341 3.2 8.0 0.00 0.00 0.00 78 1016.6
20260506223100 5 36 1.6 6.4 0.00 0.00 0.00 77 1016.6
20260506221624 5 316 4.8 14.5 0.00 0.00 0.00 77 1016.7
20260506220122 5 343 3.2 14.5 0.00 0.00 0.00 76 1016.5
20260506214556 5 339 1.6 9.7 0.00 0.00 0.00 76 1016.6
20260506213109 5 342 1.6 14.5 0.00 0.00 0.00 76 1016.6
20260506211559 5 335 4.8 14.5 0.00 0.00 0.00 75 1016.5
20260506210104 5 326 3.2 12.9 0.00 0.00 0.00 75 1016.5
20260506204605 5 332 4.8 14.5 0.00 0.00 0.00 74 1016.4
20260506203053 5 343 4.8 14.5 0.00 0.00 0.00 73 1016.4
20260506201553 5 306 4.8 14.5 0.00 0.00 0.00 73 1016.4
20260506200052 5 293 6.4 16.1 0.00 0.00 0.00 71 1016.5
20260506194552 5 324 6.4 17.7 0.00 0.00 0.00 69 1016.3
20260506193051 5 303 6.4 20.9 0.00 0.00 0.00 68 1016.4
20260506191552 6 318 4.8 17.7 0.00 0.00 0.00 67 1016.2
20260506190049 6 305 9.7 17.7 0.00 0.00 0.00 63 1016.2
20260506184559 6 293 9.7 20.9 0.00 0.00 0.00 62 1016.1
20260506183049 7 309 4.8 19.3 0.00 0.00 0.00 59 1016.0
20260506181549 7 332 6.4 19.3 0.00 0.00 0.00 60 1016.0
20260506180048 7 339 9.7 20.9 0.00 0.00 0.00 61 1015.9
20260506174547 7 291 6.4 27.4 0.00 0.00 0.00 63 1015.8
20260506173049 7 359 11.3 19.3 0.00 0.00 0.00 60 1015.8
20260506171556 7 359 8.0 25.7 0.00 0.00 0.00 60 1015.7
20260506170047 7 325 6.4 25.7 0.00 0.00 0.00 61 1015.6
20260506164546 8 4 8.0 20.9 0.00 0.00 0.00 59 1015.8
20260506163043 8 320 11.3 24.1 0.00 0.00 0.00 59 1015.7
20260506161544 8 303 11.3 24.1 0.00 0.00 0.00 60 1015.7
20260506160057 8 322 12.9 24.1 0.00 0.00 0.00 60 1015.6
20260506154542 8 301 12.9 24.1 0.00 0.00 0.00 57 1015.7
20260506153043 9 338 6.4 22.5 0.00 0.00 0.00 55 1015.7
20260506151543 9 321 9.7 19.3 0.00 0.00 0.00 55 1015.8
20260506150040 9 12 6.4 16.1 0.00 0.00 0.00 54 1015.8
20260506144553 8 342 9.7 22.5 0.00 0.00 0.00 55 1015.8
20260506143039 8 359 12.9 22.5 0.00 0.00 0.00 57 1015.9
20260506141539 9 315 12.9 20.9 0.00 0.00 0.00 57 1016.0
20260506140038 9 308 9.7 25.7 0.00 0.00 0.00 59 1016.0
20260506134537 9 311 8.0 22.5 0.00 0.00 0.00 58 1016.0
20260506133039 9 320 8.0 20.9 0.00 0.00 0.00 58 1016.1
20260506131542 8 344 4.8 19.3 0.00 0.00 0.00 59 1016.2